Location: Clanezzo
(45.7500°N, 9.6000°E)
Time: 22:16:02
(UTC+00:00)

Courier 1B Rocket - Visible Passes

Search period start: 28 May 2022 00:00
Search period end: 07 June 2022 00:00
Orbit: 920 x 1202 km, 28.2° (Epoch: 27 May)

Date Brightness Start Highest point End Pass type
(mag) Time Alt. Az. Time Alt. Az. Time Alt. Az.
28 May 6.7 01:36:58 12° S 01:36:58 12° S 01:38:05 10° SSE visible
01 Jun 6.7 20:28:14 10° SSW 20:31:28 13° SSE 20:31:56 13° SSE visible
02 Jun 6.6 21:18:37 10° SW 21:21:38 16° S 21:21:38 16° S visible
03 Jun 6.6 20:17:57 10° SSW 20:22:13 16° S 20:24:43 14° SSE visible
03 Jun 7.0 22:10:11 10° SW 22:11:07 12° SW 22:11:07 12° SW visible
04 Jun 6.5 21:09:04 10° SW 21:13:47 18° S 21:14:02 18° S visible
05 Jun 6.6 20:08:08 10° SW 20:12:58 18° S 20:16:49 12° SE visible
05 Jun 6.9 22:01:06 10° SW 22:03:11 14° SSW 22:03:11 14° SSW visible
06 Jun 6.5 20:59:45 10° SW 21:04:33 18° S 21:05:53 18° S visible
